Time,TemperatureF,DewpointF,PressureIn,WindDirection,WindDirectionDegrees,WindSpeedMPH,WindSpeedGustMPH,Humidity,HourlyPrecipIn,Conditions,Clouds,dailyrainin,SoftwareType,DateUTC
2015-05-03 00:02:00,59.8,43.0,29.83,SW,225,4.7,5.1,54,0.00,,,0.00,WUHU216HW,2015-05-03 05:02:00,
2015-05-03 00:07:00,59.8,43.0,29.83,SW,225,5.4,5.4,54,0.00,,,0.00,WUHU216HW,2015-05-03 05:07:00,
2015-05-03 00:12:00,60.1,43.8,29.83,SSW,203,4.0,5.4,55,0.00,,,0.00,WUHU216HW,2015-05-03 05:12:00,
2015-05-03 00:17:00,60.1,43.8,29.82,SW,225,3.4,5.4,55,0.00,,,0.00,WUHU216HW,2015-05-03 05:17:00,
2015-05-03 00:22:00,60.1,43.8,29.83,South,180,3.8,4.7,55,0.00,,,0.00,WUHU216HW,2015-05-03 05:22:00,
2015-05-03 00:27:00,59.9,44.2,29.83,SSW,203,2.7,4.7,56,0.00,,,0.00,WUHU216HW,2015-05-03 05:27:00,
2015-05-03 00:32:00,59.9,44.2,29.83,SSW,203,2.0,4.7,56,0.00,,,0.00,WUHU216HW,2015-05-03 05:32:00,
2015-05-03 00:37:00,59.8,44.0,29.83,SW,225,3.4,4.0,56,0.00,,,0.00,WUHU216HW,2015-05-03 05:37:00,
2015-05-03 00:42:00,59.6,43.8,29.83,SSW,203,2.5,4.3,56,0.00,,,0.00,WUHU216HW,2015-05-03 05:42:00,
2015-05-03 00:47:00,59.4,43.7,29.83,SSW,203,3.4,5.4,56,0.00,,,0.00,WUHU216HW,2015-05-03 05:47:00,
2015-05-03 00:52:00,59.4,43.7,29.83,SSW,203,4.5,5.4,56,0.00,,,0.00,WUHU216HW,2015-05-03 05:52:00,
2015-05-03 00:57:00,59.4,43.7,29.83,SSW,203,3.4,4.5,56,0.00,,,0.00,WUHU216HW,2015-05-03 05:57:00,
2015-05-03 01:02:00,59.4,43.2,29.83,SW,225,3.6,5.8,55,0.00,,,0.00,WUHU216HW,2015-05-03 06:02:00,
2015-05-03 01:07:00,59.4,43.2,29.83,WSW,248,4.3,6.0,55,0.00,,,0.00,WUHU216HW,2015-05-03 06:07:00,
2015-05-03 01:12:00,59.4,41.3,29.83,SSW,203,8.1,8.1,51,0.00,,,0.00,WUHU216HW,2015-05-03 06:12:00,
2015-05-03 01:17:00,59.6,40.4,29.83,South,180,4.7,8.1,49,0.00,,,0.00,WUHU216HW,2015-05-03 06:17:00,
2015-05-03 01:22:00,59.6,38.1,29.83,WSW,248,5.4,8.1,45,0.00,,,0.00,WUHU216HW,2015-05-03 06:22:00,
2015-05-03 01:27:00,59.8,33.3,29.83,SW,225,7.4,7.4,37,0.00,,,0.00,WUHU216HW,2015-05-03 06:27:00,
2015-05-03 01:32:00,59.9,33.4,29.83,WSW,248,4.0,7.4,37,0.00,,,0.00,WUHU216HW,2015-05-03 06:32:00,
2015-05-03 01:37:00,59.8,33.9,29.83,SW,225,3.1,7.4,38,0.00,,,0.00,WUHU216HW,2015-05-03 06:37:00,
2015-05-03 01:42:00,59.8,31.2,29.83,SW,225,4.7,6.9,34,0.00,,,0.00,WUHU216HW,2015-05-03 06:42:00,
2015-05-03 01:47:00,59.6,27.2,29.83,SSW,203,6.5,7.2,29,0.00,,,0.00,WUHU216HW,2015-05-03 06:47:00,
2015-05-03 01:52:00,59.8,22.5,29.83,SSW,203,8.3,8.3,24,0.00,,,0.00,WUHU216HW,2015-05-03 06:52:00,
2015-05-03 01:57:00,59.6,16.9,29.83,SW,225,7.6,8.3,19,0.00,,,0.00,WUHU216HW,2015-05-03 06:57:00,
2015-05-03 02:02:00,59.4,6.6,29.83,SSW,203,5.8,8.3,12,0.00,,,0.00,WUHU216HW,2015-05-03 07:02:00,
2015-05-03 02:07:00,59.2,2.7,29.83,SW,225,5.6,7.6,5,0.00,,,0.00,WUHU216HW,2015-05-03 07:07:00,
2015-05-03 02:12:00,59.0,2.5,29.83,SW,225,5.8,6.7,1,0.00,,,0.00,WUHU216HW,2015-05-03 07:12:00,
2015-05-03 02:17:00,59.0,2.5,29.83,SSW,203,4.7,6.7,1,0.00,,,0.00,WUHU216HW,2015-05-03 07:17:00,
2015-05-03 02:22:00,58.9,2.3,29.83,SSW,203,4.0,6.3,2,0.00,,,0.00,WUHU216HW,2015-05-03 07:22:00,
2015-05-03 02:27:00,58.7,2.3,29.83,SSW,203,3.8,6.3,3,0.00,,,0.00,WUHU216HW,2015-05-03 07:27:00,
2015-05-03 02:32:00,58.7,2.3,29.83,SW,225,4.0,5.4,6,0.00,,,0.00,WUHU216HW,2015-05-03 07:32:00,
2015-05-03 02:37:00,58.3,2.0,29.83,SW,225,4.7,5.6,5,0.00,,,0.00,WUHU216HW,2015-05-03 07:37:00,
2015-05-03 02:42:00,58.3,2.0,29.82,SSW,203,3.4,5.6,2,0.00,,,0.00,WUHU216HW,2015-05-03 07:42:00,
2015-05-03 02:47:00,58.3,2.0,29.82,SW,225,2.0,4.7,6,0.00,,,0.00,WUHU216HW,2015-05-03 07:47:00,
2015-05-03 02:52:00,58.0,1.6,29.82,SSW,203,2.2,5.4,7,0.00,,,0.00,WUHU216HW,2015-05-03 07:52:00,
2015-05-03 02:57:00,58.0,1.6,29.82,SSW,203,2.7,5.4,7,0.00,,,0.00,WUHU216HW,2015-05-03 07:57:00,
2015-05-03 03:02:00,57.6,1.4,29.82,SSW,203,3.4,5.4,1,0.00,,,0.00,WUHU216HW,2015-05-03 08:02:00,
2015-05-03 03:07:00,57.8,1.5,29.82,SSW,203,4.7,6.3,1,0.00,,,0.00,WUHU216HW,2015-05-03 08:07:00,
2015-05-03 03:12:00,57.8,1.5,29.81,SSW,203,4.0,6.3,1,0.00,,,0.00,WUHU216HW,2015-05-03 08:12:00,
2015-05-03 03:17:00,57.8,1.5,29.81,SSW,203,2.0,5.4,1,0.00,,,0.00,WUHU216HW,2015-05-03 08:17:00,
2015-05-03 03:22:00,57.6,1.4,29.81,SSW,203,4.7,4.7,1,0.00,,,0.00,WUHU216HW,2015-05-03 08:22:00,
2015-05-03 03:27:00,57.2,1.1,29.81,SW,225,4.0,4.9,1,0.00,,,0.00,WUHU216HW,2015-05-03 08:27:00,
2015-05-03 03:32:00,57.2,1.1,29.81,SSW,203,3.4,4.9,1,0.00,,,0.00,WUHU216HW,2015-05-03 08:32:00,
2015-05-03 03:37:00,57.1,1.0,29.81,South,180,3.6,4.9,1,0.00,,,0.00,WUHU216HW,2015-05-03 08:37:00,
2015-05-03 03:42:00,56.9,0.8,29.81,SSW,203,4.0,4.9,1,0.00,,,0.00,WUHU216HW,2015-05-03 08:42:00,
2015-05-03 03:47:00,56.9,0.8,29.81,SSW,203,5.4,6.3,1,0.00,,,0.00,WUHU216HW,2015-05-03 08:47:00,
2015-05-03 03:52:00,56.9,0.8,29.81,SSW,203,4.9,6.5,1,0.00,,,0.00,WUHU216HW,2015-05-03 08:52:00,
2015-05-03 03:57:00,57.1,1.0,29.81,South,180,4.5,7.4,1,0.00,,,0.00,WUHU216HW,2015-05-03 08:57:00,
2015-05-03 04:02:00,57.4,1.3,29.81,SSW,203,5.1,7.4,1,0.00,,,0.00,WUHU216HW,2015-05-03 09:02:00,
2015-05-03 04:06:00,57.8,1.5,29.81,SW,225,4.9,6.3,1,0.00,,,0.00,WUHU216HW,2015-05-03 09:06:00,
2015-05-03 04:11:00,58.0,1.6,29.81,SW,225,2.9,6.3,1,0.00,,,0.00,WUHU216HW,2015-05-03 09:11:00,
2015-05-03 04:16:00,58.0,1.6,29.81,SW,225,5.4,7.2,1,0.00,,,0.00,WUHU216HW,2015-05-03 09:16:00,
2015-05-03 04:21:00,58.0,1.6,29.81,SW,225,4.0,7.2,1,0.00,,,0.00,WUHU216HW,2015-05-03 09:21:00,
2015-05-03 04:26:00,58.0,1.6,29.81,SSW,203,4.7,6.3,1,0.00,,,0.00,WUHU216HW,2015-05-03 09:26:00,
2015-05-03 04:31:00,57.8,1.5,29.81,SSW,203,3.6,6.3,1,0.00,,,0.00,WUHU216HW,2015-05-03 09:31:00,
2015-05-03 04:36:00,57.6,1.4,29.81,SSW,203,3.4,4.7,1,0.00,,,0.00,WUHU216HW,2015-05-03 09:36:00,
2015-05-03 04:41:00,57.2,1.1,29.81,SSW,203,2.7,4.5,1,0.00,,,0.00,WUHU216HW,2015-05-03 09:41:00,
2015-05-03 04:46:00,56.9,0.8,29.81,SSW,203,1.8,4.0,1,0.00,,,0.00,WUHU216HW,2015-05-03 09:46:00,
2015-05-03 04:51:00,56.5,0.5,29.81,SW,225,2.5,4.0,1,0.00,,,0.00,WUHU216HW,2015-05-03 09:51:00,
2015-05-03 04:56:00,56.2,0.4,29.81,South,180,3.6,4.0,1,0.00,,,0.00,WUHU216HW,2015-05-03 09:56:00,
2015-05-03 05:01:00,56.2,0.4,29.81,SSW,203,4.0,4.7,1,0.00,,,0.00,WUHU216HW,2015-05-03 10:01:00,
2015-05-03 05:06:00,55.8,0.1,29.81,SSW,203,2.7,4.9,1,0.00,,,0.00,WUHU216HW,2015-05-03 10:06:00,
2015-05-03 05:11:00,55.6,-0.1,29.81,South,180,1.6,4.9,1,0.00,,,0.00,WUHU216HW,2015-05-03 10:11:00,
2015-05-03 05:16:00,55.4,-0.2,29.81,SSW,203,2.5,4.0,1,0.00,,,0.00,WUHU216HW,2015-05-03 10:16:00,
2015-05-03 05:21:00,55.3,-0.4,29.81,SSW,203,2.2,4.3,1,0.00,,,0.00,WUHU216HW,2015-05-03 10:21:00,
2015-05-03 05:26:00,55.1,-0.4,29.81,SSW,203,5.4,5.4,1,0.00,,,0.00,WUHU216HW,2015-05-03 10:26:00,
2015-05-03 05:31:00,54.7,-0.7,29.81,South,180,3.8,5.4,1,0.00,,,0.00,WUHU216HW,2015-05-03 10:31:00,
2015-05-03 05:36:00,54.7,-0.7,29.81,SSW,203,3.8,5.4,1,0.00,,,0.00,WUHU216HW,2015-05-03 10:36:00,
2015-05-03 05:41:00,54.7,-0.7,29.81,SSW,203,3.4,4.7,1,0.00,,,0.00,WUHU216HW,2015-05-03 10:41:00,
2015-05-03 05:46:00,54.5,-0.9,29.81,SSW,203,1.6,4.7,1,0.00,,,0.00,WUHU216HW,2015-05-03 10:46:00,
2015-05-03 05:51:00,54.2,-1.2,29.81,SSW,203,3.4,3.8,1,0.00,,,0.00,WUHU216HW,2015-05-03 10:51:00,
2015-05-03 05:56:00,54.0,-1.3,29.81,SSW,203,4.7,5.4,1,0.00,,,0.00,WUHU216HW,2015-05-03 10:56:00,
2015-05-03 06:01:00,54.2,-1.2,29.81,SSW,203,4.7,5.8,1,0.00,,,0.00,WUHU216HW,2015-05-03 11:01:00,
2015-05-03 06:06:00,54.7,-0.7,29.81,SSW,203,3.6,5.8,1,0.00,,,0.00,WUHU216HW,2015-05-03 11:06:00,
2015-05-03 06:11:00,55.3,-0.4,29.81,SSW,203,4.0,5.6,1,0.00,,,0.00,WUHU216HW,2015-05-03 11:11:00,
2015-05-03 06:16:00,55.8,0.1,29.81,SSW,203,4.9,5.6,1,0.00,,,0.00,WUHU216HW,2015-05-03 11:16:00,
2015-05-03 06:21:00,56.5,0.5,29.81,SSW,203,4.0,6.3,1,0.00,,,0.00,WUHU216HW,2015-05-03 11:21:00,
2015-05-03 06:26:00,57.8,1.5,29.81,SSW,203,4.5,6.3,1,0.00,,,0.00,WUHU216HW,2015-05-03 11:26:00,
2015-05-03 06:31:00,58.3,2.0,29.81,SSW,203,6.3,6.3,1,0.00,,,0.00,WUHU216HW,2015-05-03 11:31:00,
2015-05-03 06:36:00,59.4,2.8,29.81,SW,225,6.3,7.2,1,0.00,,,0.00,WUHU216HW,2015-05-03 11:36:00,
2015-05-03 06:41:00,60.3,3.5,29.81,SSW,203,5.6,7.6,1,0.00,,,0.00,WUHU216HW,2015-05-03 11:41:00,
2015-05-03 06:46:00,61.6,4.5,29.81,SW,225,7.4,8.5,7,0.00,,,0.00,WUHU216HW,2015-05-03 11:46:00,
2015-05-03 06:51:00,62.5,22.9,29.81,SSE,158,6.9,8.5,22,0.00,,,0.00,WUHU216HW,2015-05-03 11:51:00,
2015-05-03 06:56:00,62.8,28.0,29.81,SW,225,7.8,10.5,27,0.00,,,0.00,WUHU216HW,2015-05-03 11:56:00,
2015-05-03 07:01:00,63.5,32.3,29.81,SSW,203,9.2,10.5,31,0.00,,,0.00,WUHU216HW,2015-05-03 12:01:00,
2015-05-03 07:06:00,63.7,34.7,29.81,South,180,7.4,9.6,34,0.00,,,0.00,WUHU216HW,2015-05-03 12:06:00,
2015-05-03 07:11:00,63.5,35.9,29.80,South,180,7.6,9.6,36,0.00,,,0.00,WUHU216HW,2015-05-03 12:11:00,
2015-05-03 07:16:00,63.0,35.5,29.80,SSW,203,5.6,10.1,36,0.00,,,0.00,WUHU216HW,2015-05-03 12:16:00,
2015-05-03 07:21:00,62.8,33.1,29.80,SW,225,8.3,10.5,33,0.00,,,0.00,WUHU216HW,2015-05-03 12:21:00,
2015-05-03 07:26:00,63.0,33.3,29.80,SSW,203,7.8,10.5,33,0.00,,,0.00,WUHU216HW,2015-05-03 12:26:00,
2015-05-03 07:31:00,63.4,35.7,29.80,SSW,203,5.8,10.1,36,0.00,,,0.00,WUHU216HW,2015-05-03 12:31:00,
2015-05-03 07:36:00,63.9,37.0,29.80,SW,225,7.4,10.5,37,0.00,,,0.00,WUHU216HW,2015-05-03 12:36:00,
2015-05-03 07:41:00,64.4,38.9,29.80,SSW,203,9.4,12.8,39,0.00,,,0.00,WUHU216HW,2015-05-03 12:41:00,
2015-05-03 07:46:00,64.4,40.1,29.80,SSW,203,9.2,14.1,41,0.00,,,0.00,WUHU216HW,2015-05-03 12:46:00,
2015-05-03 07:51:00,64.1,39.9,29.81,SSW,203,8.5,14.1,41,0.00,,,0.00,WUHU216HW,2015-05-03 12:51:00,
2015-05-03 07:56:00,63.7,39.0,29.81,SSW,203,13.0,13.0,40,0.00,,,0.00,WUHU216HW,2015-05-03 12:56:00,
2015-05-03 08:01:00,63.0,37.6,29.81,South,180,7.2,13.0,39,0.00,,,0.00,WUHU216HW,2015-05-03 13:01:00,
2015-05-03 08:06:00,62.8,35.3,29.80,SSW,203,6.7,13.0,36,0.00,,,0.00,WUHU216HW,2015-05-03 13:06:00,
2015-05-03 08:11:00,62.6,33.7,29.80,South,180,8.5,11.4,34,0.00,,,0.00,WUHU216HW,2015-05-03 13:11:00,
2015-05-03 08:16:00,62.5,32.0,29.80,SSW,203,11.9,11.9,32,0.00,,,0.00,WUHU216HW,2015-05-03 13:16:00,
2015-05-03 08:21:00,62.5,28.7,29.80,SSW,203,8.5,11.9,28,0.00,,,0.00,WUHU216HW,2015-05-03 13:21:00,
2015-05-03 08:26:00,62.6,28.8,29.80,SSW,203,8.5,11.9,28,0.00,,,0.00,WUHU216HW,2015-05-03 13:26:00,
2015-05-03 08:31:00,62.8,30.0,29.80,SSW,203,6.7,11.0,29,0.00,,,0.00,WUHU216HW,2015-05-03 13:31:00,
2015-05-03 08:36:00,63.2,29.4,29.80,SSW,203,8.3,11.4,28,0.00,,,0.00,WUHU216HW,2015-05-03 13:36:00,
2015-05-03 08:41:00,63.4,28.5,29.80,SSE,158,4.5,11.4,27,0.00,,,0.00,WUHU216HW,2015-05-03 13:41:00,
2015-05-03 08:51:00,64.6,27.6,29.80,SSW,203,5.8,7.8,25,0.00,,,0.00,WUHU216HW,2015-05-03 13:51:00,
2015-05-03 08:56:00,65.3,35.4,29.80,SSW,203,10.1,11.2,33,0.00,,,0.00,WUHU216HW,2015-05-03 13:56:00,
2015-05-03 09:01:00,65.7,33.6,29.80,SSW,203,7.4,12.8,30,0.00,,,0.00,WUHU216HW,2015-05-03 14:01:00,
2015-05-03 09:06:00,65.5,37.7,29.80,SSW,203,7.4,12.8,36,0.00,,,0.00,WUHU216HW,2015-05-03 14:06:00,
2015-05-03 09:11:00,65.5,37.7,29.80,SSW,203,8.5,12.8,36,0.00,,,0.00,WUHU216HW,2015-05-03 14:11:00,
2015-05-03 09:16:00,65.7,39.3,29.80,SSW,203,7.6,10.3,38,0.00,,,0.00,WUHU216HW,2015-05-03 14:16:00,
2015-05-03 09:21:00,66.4,40.7,29.80,SSE,158,6.9,10.3,39,0.00,,,0.00,WUHU216HW,2015-05-03 14:21:00,
2015-05-03 09:26:00,66.8,42.3,29.80,SSW,203,5.6,9.8,41,0.00,,,0.00,WUHU216HW,2015-05-03 14:26:00,
2015-05-03 09:31:00,67.1,43.2,29.80,SW,225,7.6,9.4,42,0.00,,,0.00,WUHU216HW,2015-05-03 14:31:00,
2015-05-03 09:36:00,67.5,42.4,29.80,SSW,203,6.0,9.4,40,0.00,,,0.00,WUHU216HW,2015-05-03 14:36:00,
2015-05-03 09:41:00,67.9,43.8,29.80,SSW,203,5.4,8.1,42,0.00,,,0.00,WUHU216HW,2015-05-03 14:41:00,
2015-05-03 09:46:00,68.4,45.5,29.80,SE,135,6.9,9.4,44,0.00,,,0.00,WUHU216HW,2015-05-03 14:46:00,
2015-05-03 09:51:00,68.9,46.0,29.80,SE,135,7.4,9.4,44,0.00,,,0.00,WUHU216HW,2015-05-03 14:51:00,
2015-05-03 09:56:00,68.8,46.4,29.80,South,180,9.2,12.8,45,0.00,,,0.00,WUHU216HW,2015-05-03 14:56:00,
2015-05-03 10:01:00,68.6,46.3,29.80,South,180,5.4,12.8,45,0.00,,,0.00,WUHU216HW,2015-05-03 15:01:00,
2015-05-03 10:06:00,68.9,47.8,29.80,SSW,203,11.0,11.0,47,0.00,,,0.00,WUHU216HW,2015-05-03 15:06:00,
2015-05-03 10:11:00,69.3,48.2,29.80,SW,225,8.5,11.0,47,0.00,,,0.00,WUHU216HW,2015-05-03 15:11:00,
2015-05-03 10:16:00,69.3,48.2,29.80,SSW,203,11.2,14.1,47,0.00,,,0.00,WUHU216HW,2015-05-03 15:16:00,
2015-05-03 10:21:00,69.5,48.9,29.80,SSW,203,7.6,14.1,48,0.00,,,0.00,WUHU216HW,2015-05-03 15:21:00,
2015-05-03 10:26:00,69.8,49.8,29.79,SSW,203,11.6,13.0,49,0.00,,,0.00,WUHU216HW,2015-05-03 15:26:00,
2015-05-03 10:31:00,70.2,49.5,29.80,SSW,203,10.5,13.0,48,0.00,,,0.00,WUHU216HW,2015-05-03 15:31:00,
2015-05-03 10:36:00,69.8,49.8,29.80,SSW,203,9.6,13.0,49,0.00,,,0.00,WUHU216HW,2015-05-03 15:36:00,
2015-05-03 10:41:00,69.8,49.8,29.80,WSW,248,9.2,13.9,49,0.00,,,0.00,WUHU216HW,2015-05-03 15:41:00,
2015-05-03 10:46:00,70.2,50.1,29.80,SSW,203,12.5,14.1,49,0.00,,,0.00,WUHU216HW,2015-05-03 15:46:00,
2015-05-03 10:51:00,69.8,49.8,29.80,SSW,203,11.9,14.1,49,0.00,,,0.00,WUHU216HW,2015-05-03 15:51:00,
2015-05-03 10:56:00,69.8,48.6,29.80,SSW,203,9.8,13.9,47,0.00,,,0.00,WUHU216HW,2015-05-03 15:56:00,
2015-05-03 11:01:00,70.2,49.5,29.80,SSW,203,9.8,13.4,48,0.00,,,0.00,WUHU216HW,2015-05-03 16:01:00,
2015-05-03 11:06:00,70.4,49.7,29.80,SW,225,7.6,12.3,48,0.00,,,0.00,WUHU216HW,2015-05-03 16:06:00,
2015-05-03 11:11:00,70.9,50.2,29.80,SSW,203,9.4,12.3,48,0.00,,,0.00,WUHU216HW,2015-05-03 16:11:00,
2015-05-03 11:16:00,70.9,50.8,29.80,SSW,203,9.8,16.1,49,0.00,,,0.00,WUHU216HW,2015-05-03 16:16:00,
2015-05-03 11:21:00,70.7,50.1,29.80,SSW,203,12.8,16.1,48,0.00,,,0.00,WUHU216HW,2015-05-03 16:21:00,
2015-05-03 11:26:00,71.3,50.0,29.80,WSW,248,13.2,16.1,47,0.00,,,0.00,WUHU216HW,2015-05-03 16:26:00,
2015-05-03 11:31:00,72.4,51.5,29.80,SSW,203,14.3,14.8,48,0.00,,,0.00,WUHU216HW,2015-05-03 16:31:00,
2015-05-03 11:36:00,72.9,51.9,29.80,SSW,203,13.6,17.0,48,0.00,,,0.00,WUHU216HW,2015-05-03 16:36:00,
2015-05-03 11:41:00,73.4,52.5,29.80,SW,225,12.1,17.0,48,0.00,,,0.00,WUHU216HW,2015-05-03 16:41:00,
2015-05-03 11:46:00,74.2,53.2,29.80,SW,225,9.2,16.3,48,0.00,,,0.00,WUHU216HW,2015-05-03 16:46:00,
2015-05-03 11:51:00,75.2,54.2,29.80,SW,225,10.3,13.4,48,0.00,,,0.00,WUHU216HW,2015-05-03 16:51:00,
2015-05-03 11:56:00,75.4,54.4,29.80,SSW,203,6.7,13.4,48,0.00,,,0.00,WUHU216HW,2015-05-03 16:56:00,
2015-05-03 12:01:00,76.1,55.0,29.80,SSW,203,8.3,12.8,48,0.00,,,0.00,WUHU216HW,2015-05-03 17:01:00,
2015-05-03 12:06:00,77.0,55.3,29.79,South,180,15.0,15.2,47,0.00,,,0.00,WUHU216HW,2015-05-03 17:06:00,
2015-05-03 12:11:00,77.4,55.5,29.79,WSW,248,12.3,18.3,47,0.00,,,0.00,WUHU216HW,2015-05-03 17:11:00,
2015-05-03 12:16:00,77.4,55.5,29.79,SSW,203,15.0,18.3,47,0.00,,,0.00,WUHU216HW,2015-05-03 17:16:00,
2015-05-03 12:21:00,77.6,55.7,29.79,SSW,203,13.0,19.2,47,0.00,,,0.00,WUHU216HW,2015-05-03 17:21:00,
2015-05-03 12:31:00,77.6,55.7,29.79,SSW,203,13.9,19.0,47,0.00,,,0.00,WUHU216HW,2015-05-03 17:31:00,
2015-05-03 12:36:00,77.2,55.4,29.79,SSW,203,17.2,19.2,47,0.00,,,0.00,WUHU216HW,2015-05-03 17:36:00,
2015-05-03 12:41:00,76.7,55.5,29.79,SSW,203,15.7,19.2,48,0.00,,,0.00,WUHU216HW,2015-05-03 17:41:00,
2015-05-03 12:46:00,77.0,55.8,29.78,SSW,203,15.7,18.3,48,0.00,,,0.00,WUHU216HW,2015-05-03 17:46:00,
2015-05-03 12:51:00,77.0,55.8,29.78,WSW,248,12.5,17.9,48,0.00,,,0.00,WUHU216HW,2015-05-03 17:51:00,
2015-05-03 13:01:00,76.5,55.4,29.78,SSW,203,21.5,21.5,48,0.00,,,0.00,WUHU216HW,2015-05-03 18:01:00,
2015-05-03 13:05:00,75.8,54.7,29.78,SSW,203,12.3,21.5,48,0.00,,,0.00,WUHU216HW,2015-05-03 18:05:00,
2015-05-03 13:10:00,75.6,54.5,29.78,SW,225,13.0,22.4,48,0.00,,,0.00,WUHU216HW,2015-05-03 18:10:00,
2015-05-03 13:15:00,75.8,54.7,29.78,SW,225,16.3,22.4,48,0.00,,,0.00,WUHU216HW,2015-05-03 18:15:00,
2015-05-03 13:20:00,76.0,54.9,29.78,SW,225,8.5,18.6,48,0.00,,,0.00,WUHU216HW,2015-05-03 18:20:00,
2015-05-03 13:25:00,76.9,55.7,29.78,SW,225,13.4,18.6,48,0.00,,,0.00,WUHU216HW,2015-05-03 18:25:00,
2015-05-03 13:30:00,76.9,55.7,29.78,SW,225,12.1,17.7,48,0.00,,,0.00,WUHU216HW,2015-05-03 18:30:00,
2015-05-03 13:35:00,76.0,54.9,29.78,South,180,13.0,19.5,48,0.00,,,0.00,WUHU216HW,2015-05-03 18:35:00,
2015-05-03 13:40:00,75.8,54.7,29.78,SSW,203,12.8,19.5,48,0.00,,,0.00,WUHU216HW,2015-05-03 18:40:00,
2015-05-03 13:45:00,76.1,55.0,29.79,SSW,203,12.8,19.0,48,0.00,,,0.00,WUHU216HW,2015-05-03 18:45:00,
2015-05-03 13:50:00,76.0,55.4,29.79,SW,225,11.2,19.0,49,0.00,,,0.00,WUHU216HW,2015-05-03 18:50:00,
2015-05-03 13:55:00,75.8,54.7,29.79,SSW,203,14.5,18.1,48,0.00,,,0.00,WUHU216HW,2015-05-03 18:55:00,
2015-05-03 14:00:00,75.8,54.7,29.79,SW,225,13.4,23.0,48,0.00,,,0.00,WUHU216HW,2015-05-03 19:00:00,
2015-05-03 14:05:00,76.1,55.0,29.79,SSW,203,12.8,23.0,48,0.00,,,0.00,WUHU216HW,2015-05-03 19:05:00,
2015-05-03 14:10:00,76.0,54.9,29.79,WSW,248,9.8,18.8,48,0.00,,,0.00,WUHU216HW,2015-05-03 19:10:00,
2015-05-03 14:15:00,75.6,54.5,29.79,SW,225,15.7,18.3,48,0.00,,,0.00,WUHU216HW,2015-05-03 19:15:00,
2015-05-03 14:20:00,75.4,54.4,29.79,SW,225,14.1,18.3,48,0.00,,,0.00,WUHU216HW,2015-05-03 19:20:00,
2015-05-03 14:25:00,74.5,54.1,29.79,WSW,248,16.1,16.8,49,0.00,,,0.00,WUHU216HW,2015-05-03 19:25:00,
2015-05-03 14:30:00,74.0,53.0,29.78,SSW,203,12.1,16.8,48,0.00,,,0.00,WUHU216HW,2015-05-03 19:30:00,
2015-05-03 14:35:00,74.7,53.7,29.78,WSW,248,12.5,17.4,48,0.00,,,0.00,WUHU216HW,2015-05-03 19:35:00,
2015-05-03 14:40:00,75.1,54.0,29.78,SSW,203,7.6,17.4,48,0.00,,,0.00,WUHU216HW,2015-05-03 19:40:00,
2015-05-03 14:45:00,75.1,54.0,29.78,SSW,203,8.1,15.9,48,0.00,,,0.00,WUHU216HW,2015-05-03 19:45:00,
2015-05-03 14:50:00,75.6,54.5,29.79,WSW,248,10.1,15.9,48,0.00,,,0.00,WUHU216HW,2015-05-03 19:50:00,
2015-05-03 14:55:00,75.1,54.0,29.79,SW,225,12.1,19.0,48,0.00,,,0.00,WUHU216HW,2015-05-03 19:55:00,
2015-05-03 15:00:00,74.7,53.7,29.79,SSW,203,14.8,19.0,48,0.00,,,0.00,WUHU216HW,2015-05-03 20:00:00,
2015-05-03 15:05:00,75.1,54.0,29.79,SW,225,15.2,19.0,48,0.00,,,0.00,WUHU216HW,2015-05-03 20:05:00,
2015-05-03 15:10:00,74.9,53.8,29.79,SSW,203,15.0,17.0,48,0.00,,,0.00,WUHU216HW,2015-05-03 20:10:00,
2015-05-03 15:15:00,75.8,54.7,29.79,SW,225,14.3,20.4,48,0.00,,,0.00,WUHU216HW,2015-05-03 20:15:00,
2015-05-03 15:20:00,76.3,55.2,29.79,SW,225,15.7,20.4,48,0.00,,,0.00,WUHU216HW,2015-05-03 20:20:00,
2015-05-03 15:25:00,76.7,55.5,29.79,SW,225,11.0,20.4,48,0.00,,,0.00,WUHU216HW,2015-05-03 20:25:00,
2015-05-03 15:30:00,76.3,55.2,29.79,SW,225,13.9,20.4,48,0.00,,,0.00,WUHU216HW,2015-05-03 20:30:00,
2015-05-03 15:35:00,76.0,54.9,29.79,SW,225,15.7,17.2,48,0.00,,,0.00,WUHU216HW,2015-05-03 20:35:00,
2015-05-03 15:40:00,76.3,55.2,29.79,SSW,203,17.2,19.9,48,0.00,,,0.00,WUHU216HW,2015-05-03 20:40:00,
2015-05-03 15:45:00,76.0,55.4,29.79,SSW,203,8.7,20.1,49,0.00,,,0.00,WUHU216HW,2015-05-03 20:45:00,
2015-05-03 15:50:00,76.3,55.2,29.79,SSW,203,17.2,20.1,48,0.00,,,0.00,WUHU216HW,2015-05-03 20:50:00,
2015-05-03 15:55:00,76.0,55.4,29.79,SSW,203,14.3,19.2,49,0.00,,,0.00,WUHU216HW,2015-05-03 20:55:00,
2015-05-03 16:00:00,75.2,54.8,29.78,SW,225,20.1,21.9,49,0.00,,,0.00,WUHU216HW,2015-05-03 21:00:00,
2015-05-03 16:05:00,74.9,54.5,29.79,SW,225,13.0,21.9,49,0.00,,,0.00,WUHU216HW,2015-05-03 21:05:00,
2015-05-03 16:10:00,74.2,53.7,29.79,SSW,203,16.3,20.1,49,0.00,,,0.00,WUHU216HW,2015-05-03 21:10:00,
2015-05-03 16:15:00,74.2,53.2,29.79,SSW,203,14.8,20.1,48,0.00,,,0.00,WUHU216HW,2015-05-03 21:15:00,
2015-05-03 16:20:00,74.3,53.4,29.79,SSW,203,11.9,20.1,48,0.00,,,0.00,WUHU216HW,2015-05-03 21:20:00,
2015-05-03 16:25:00,74.5,53.6,29.79,SSW,203,14.3,16.6,48,0.00,,,0.00,WUHU216HW,2015-05-03 21:25:00,
2015-05-03 16:30:00,73.8,53.4,29.79,South,180,9.8,19.5,49,0.00,,,0.00,WUHU216HW,2015-05-03 21:30:00,
2015-05-03 16:35:00,73.8,53.4,29.79,SSW,203,12.5,19.5,49,0.00,,,0.00,WUHU216HW,2015-05-03 21:35:00,
2015-05-03 16:40:00,74.0,53.6,29.79,SSW,203,14.3,15.9,49,0.00,,,0.00,WUHU216HW,2015-05-03 21:40:00,
2015-05-03 16:45:00,73.8,53.4,29.79,SW,225,7.2,15.9,49,0.00,,,0.00,WUHU216HW,2015-05-03 21:45:00,
2015-05-03 16:50:00,73.8,52.8,29.79,South,180,11.9,17.0,48,0.00,,,0.00,WUHU216HW,2015-05-03 21:50:00,
2015-05-03 16:55:00,73.6,52.0,29.79,SSW,203,10.7,17.0,47,0.00,,,0.00,WUHU216HW,2015-05-03 21:55:00,
2015-05-03 17:00:00,73.4,51.8,29.79,SSW,203,8.9,14.3,47,0.00,,,0.00,WUHU216HW,2015-05-03 22:00:00,
2015-05-03 17:05:00,73.1,52.1,29.79,SE,135,12.1,15.2,48,0.00,,,0.00,WUHU216HW,2015-05-03 22:05:00,
2015-05-03 17:10:00,72.4,50.9,29.79,SSW,203,9.8,15.2,47,0.00,,,0.00,WUHU216HW,2015-05-03 22:10:00,
2015-05-03 17:15:00,72.4,50.3,29.79,SSW,203,9.6,15.7,46,0.00,,,0.00,WUHU216HW,2015-05-03 22:15:00,
2015-05-03 17:20:00,73.1,50.9,29.78,SSE,158,12.8,15.7,46,0.00,,,0.00,WUHU216HW,2015-05-03 22:20:00,
2015-05-03 17:25:00,73.1,51.6,29.78,SSW,203,12.5,14.8,47,0.00,,,0.00,WUHU216HW,2015-05-03 22:25:00,
2015-05-03 17:30:00,72.9,50.8,29.78,South,180,11.9,13.4,46,0.00,,,0.00,WUHU216HW,2015-05-03 22:30:00,
2015-05-03 17:35:00,73.1,50.3,29.78,SW,225,9.6,13.2,45,0.00,,,0.00,WUHU216HW,2015-05-03 22:35:00,
2015-05-03 17:40:00,73.1,49.8,29.78,SSW,203,9.2,13.2,44,0.00,,,0.00,WUHU216HW,2015-05-03 22:40:00,
2015-05-03 17:45:00,72.9,49.6,29.78,SSE,158,12.5,13.6,44,0.00,,,0.00,WUHU216HW,2015-05-03 22:45:00,
2015-05-03 17:50:00,72.4,47.9,29.78,SSW,203,9.4,13.6,42,0.00,,,0.00,WUHU216HW,2015-05-03 22:50:00,
2015-05-03 17:55:00,72.2,48.3,29.78,SSW,203,10.7,14.3,43,0.00,,,0.00,WUHU216HW,2015-05-03 22:55:00,
2015-05-03 18:00:00,72.0,47.6,29.78,SSW,203,5.6,14.3,42,0.00,,,0.00,WUHU216HW,2015-05-03 23:00:00,
2015-05-03 18:05:00,72.2,48.3,29.78,SSE,158,9.2,12.3,43,0.00,,,0.00,WUHU216HW,2015-05-03 23:05:00,
2015-05-03 18:10:00,71.8,49.2,29.78,South,180,6.3,11.9,45,0.00,,,0.00,WUHU216HW,2015-05-03 23:10:00,
2015-05-03 18:15:00,72.0,49.4,29.77,SSW,203,7.6,10.7,45,0.00,,,0.00,WUHU216HW,2015-05-03 23:15:00,
2015-05-03 18:25:00,71.1,48.6,29.77,SSW,203,6.3,14.3,45,0.00,,,0.00,WUHU216HW,2015-05-03 23:25:00,
2015-05-03 18:30:00,71.3,48.7,29.77,SE,135,5.4,13.6,45,0.00,,,0.00,WUHU216HW,2015-05-03 23:30:00,
2015-05-03 18:35:00,71.3,49.3,29.76,SSW,203,5.6,12.8,46,0.00,,,0.00,WUHU216HW,2015-05-03 23:35:00,
2015-05-03 18:40:00,72.2,50.8,29.76,SSW,203,5.4,12.8,47,0.00,,,0.00,WUHU216HW,2015-05-03 23:40:00,
2015-05-03 18:45:00,73.3,52.3,29.76,SSE,158,7.8,10.1,48,0.00,,,0.00,WUHU216HW,2015-05-03 23:45:00,